Regional Weather Roundup
Issued by NWS

Home | Current Version | Previous Version | Text Only | Print | Product List | Glossary Off
Versions: 1 2 3 4 5 6 7 8 9 10 11 12 13 14 15 16 17 18 19 20 21 22 23 24 25 26 27 28 29 30 31 32 33 34 35 36 37 38 39 40 41 42 43 44 45 46 47 48 49 50

000
ASUS45 KCYS 222310
RWRWY

WYOMING REGIONAL WEATHER ROUNDUP
NATIONAL WEATHER SERVICE CHEYENNE WY
500 PM MDT MON SEP 22 2014

NOTE:  "FAIR" INDICATES FEW OR NO CLOUDS BELOW 12,000 FEET
WITH NO SIGNIFICANT WEATHER AND/OR OBSTRUCTIONS TO VISIBILITY.

WYZ001-230000-
YELLOWSTONE NATIONAL PARK

CITY           SKY/WX    TMP DP  RH WIND       PRES   REMARKS
LK YELLOWSTONE   N/A     48  45  89 W7G16     30.28R
W YELLOWSTONE  NOT AVBL

$$
WYZ002>013-054>058-071-098>099-230000-
NORTHERN WYOMING

CITY           SKY/WX    TMP DP  RH WIND       PRES   REMARKS
JACKSON        MOSUNNY   63  48  59 S15G24      N/A
CODY           PTSUNNY   72  45  37 W14G21    30.01F
GREYBULL       PTSUNNY   77  47  34 SE3       29.93F
WORLAND        CLOUDY    76  44  32 W5        29.95F
SHERIDAN       CLOUDY    70  49  47 SW14      29.95S
BUFFALO        CLOUDY    68  47  46 W10       30.01R
GILLETTE       CLOUDY    76  44  32 SW13      29.93S
HULETT         FAIR      79  46  31 MISG      29.95
NEWCASTLE      FAIR      72  43  35 MISG      30.00

$$
WYZ014>020-022>026-101>103-230000-
CENTRAL WYOMING

CITY           SKY/WX    TMP DP  RH WIND       PRES   REMARKS
BIG PINEY      CLOUDY    62  46  55 NE5       30.24R
PINEDALE       CLOUDY    54  50  87 NE5       30.25S
DUBOIS         MOCLDY    55  41  58 W20G29    30.19R
LANDER         PTSUNNY   74  40  29 CALM      30.04S
RIVERTON       SUNNY     73  41  31 VRB3      30.05S
CASPER         CLOUDY    71  43  36 SW21G30   30.05F
DOUGLAS        CLOUDY    72  45  37 SW7       30.05F

$$
WYZ021-027>030-104>119-230000-
SOUTHERN WYOMING

CITY           SKY/WX    TMP DP  RH WIND       PRES   REMARKS
EVANSTON       MOSUNNY   66  41  40 W18G29    30.25S
KEMMERER       PTCLDY    61  43  51 W17       30.25S
FORT BRIDGER   CLOUDY    67  42  39 W16G22    30.27R
ROCK SPRINGS   MOSUNNY   65  45  48 W15       30.21S
DIXON          TSTM      56  51  81 S3        30.27R
RAWLINS        PTSUNNY   62  46  55 SW14G21   30.19F
SARATOGA       CLOUDY    54  46  76 SW16      30.24F
LARAMIE        CLOUDY    62  42  47 W14       30.21R
CHEYENNE       PTSUNNY   71  44  37 S3        30.14F
TORRINGTON     PTSUNNY   66  58  75 S6        30.04S
PINE BLUFFS    FAIR      72  50  46 SE5       30.09F

$$


USA.gov is the U.S. government's official web portal to all federal, state and local government web resources and services.